Wind_Speed
6 6 5 4 4 3 3 4 4 4 5 5 8 9 7 6 5 4 4 4 5 4 3 2 1 3 4 3 3 4 4 3 3 3 3 3 3 3 4 5 6 7 8 8 8 7 6 6 5 4 4 4 5 6 7 9 8 4 5 4 4 5
6 6 5 5 4 4 4 4 3 3 5 6 7 10 10 7 4 3 2 3 5 4 3 2 2 3 4 4 4 4 5 5 4 4 4 4 4 4 3 5 6 7 8 9 9 8 8 7 6 5 4 4 5 6 7 9 8 4 4 3 3 6
8 7 7 6 5 4 3 5 6 5 4 5 6 8 9 6 3 3 3 3 4 3 3 3 3 4 4 4 4 5 6 6 6 6 6 6 5 5 4 4 6 7 9 10 10 10 8 7 6 5 4 4 4 6 7 9 9 4 4 3 4 7
11 11 10 8 8 7 5 5 5 6 4 4 5 6 8 7 4 4 5 6 5 4 4 6 6 5 5 4 4 5 6 7 7 7 7 7 7 6 5 5 6 8 10 11 11 10 8 7 6 5 4 3 4 6 7 9 8 5 5 5 5 8
13 12 11 10 10 10 8 5 2 4 3 3 4 4 8 9 6 5 5 6 6 5 5 7 8 7 6 5 5 5 7 7 7 7 9 9 9 8 7 6 6 7 9 11 11 9 7 8 7 5 4 4 5 6 8 8 7 6 7 4 6 8
12 12 11 11 10 9 9 6 5 4 2 3 4 4 7 9 6 3 4 4 5 6 7 8 9 8 8 6 6 7 8 8 8 9 10 11 10 10 9 9 8 7 7 9 10 8 7 9 8 6 5 5 6 7 8 8 8 7 8 5 6 9
11 11 11 12 11 9 9 8 8 5 4 4 2 2 6 7 6 4 4 5 6 8 9 8 9 9 9 7 7 9 9 10 10 10 11 12 12 11 12 13 11 10 9 10 14 13 10 10 7 6 6 6 8 9 8 8 8 8 9 7 7 9
11 11 11 11 11 10 10 10 9 7 6 4 1 2 3 4 6 6 5 5 7 9 10 9 8 9 10 9 9 10 10 10 10 10 11 13 13 13 15 16 12 12 14 16 18 15 12 10 7 7 6 6 9 11 9 9 8 10 10 8 9 10
11 11 12 12 11 11 11 11 11 10 7 4 4 4 2 2 4 7 6 6 7 8 10 10 9 9 10 8 10 13 12 11 11 11 13 14 15 15 15 16 14 14 17 17 15 12 11 11 9 9 8 7 10 12 10 10 10 11 11 8 10 11
11 12 12 12 13 13 13 12 11 11 9 8 7 4 3 3 3 6 6 6 7 8 9 10 11 10 10 9 11 14 14 13 12 13 14 16 17 16 17 19 18 17 16 14 13 13 12 10 11 10 9 9 10 10 10 11 12 11 13 8 9 12
10 12 13 14 14 14 14 12 11 9 9 9 7 6 6 4 2 5 6 6 7 7 8 9 11 11 11 12 12 14 14 14 13 14 16 17 17 18 23 25 21 17 15 12 11 13 12 10 10 10 9 9 10 10 9 11 12 10 14 9 8 11
10 12 14 15 15 16 15 12 11 7 7 8 6 5 6 5 5 5 3 5 7 7 8 9 11 11 12 13 12 13 14 14 14 16 17 17 16 17 21 22 18 14 14 12 8 10 11 10 9 9 8 8 9 8 9 11 11 9 13 9 8 11
12 13 14 15 16 17 17 14 11 8 6 6 5 5 5 6 7 4 2 5 7 8 9 9 10 11 11 12 12 13 14 15 15 16 17 17 17 17 18 17 15 14 14 13 8 8 11 10 9 9 7 7 8 7 9 12 11 9 12 9 8 11
14 14 15 16 17 18 20 18 14 12 8 5 5 4 4 4 5 4 2 4 6 8 8 9 10 11 11 11 12 13 14 16 17 17 16 18 17 16 17 16 15 16 16 12 8 9 10 9 7 7 8 8 7 7 8 11 11 9 11 10 9 10
15 15 16 18 19 20 21 20 17 14 11 6 5 4 3 2 3 4 2 2 5 8 7 7 8 10 10 10 11 12 13 15 18 19 18 18 18 17 17 17 16 17 16 13 9 10 10 7 4 4 7 7 7 8 8 10 12 10 8 11 10 11
15 16 18 19 20 20 20 20 16 13 11 7 4 5 5 4 4 6 4 3 7 9 8 5 6 8 9 10 11 11 12 14 16 19 19 18 20 19 17 17 17 17 16 13 13 12 10 6 5 6 7 6 6 9 9 10 12 10 7 11 10 11
15 16 17 19 20 19 18 18 15 11 12 8 6 7 8 7 4 5 5 6 8 9 10 7 5 7 8 8 9 10 11 12 14 16 18 19 20 19 17 17 17 16 15 14 14 13 10 6 5 6 7 7 6 8 10 10 12 12 8 10 11 10
14 15 17 18 20 19 18 18 14 11 12 9 7 7 6 6 4 5 7 8 8 8 10 9 8 9 9 8 8 8 9 11 13 14 16 17 18 18 17 18 17 15 14 15 14 12 10 8 7 6 5 8 8 7 10 11 13 13 11 9 10 10
14 16 16 16 19 20 19 20 15 11 12 9 8 7 4 5 6 7 8 9 9 9 8 7 9 10 10 11 10 9 9 9 11 13 14 15 16 16 16 17 17 15 14 15 15 12 10 9 8 8 5 6 9 8 9 12 14 15 13 11 9 10
13 15 16 16 19 21 20 21 16 12 13 11 9 8 4 4 5 7 9 10 9 9 9 8 9 9 10 12 12 11 10 10 10 11 13 14 14 16 16 16 16 16 15 15 15 11 11 10 8 7 6 5 8 8 9 12 14 16 16 13 11 10
11 14 17 17 19 21 19 20 17 13 13 10 10 8 6 5 6 9 10 10 8 8 8 8 9 9 9 11 12 13 13 12 11 11 12 13 14 14 15 16 17 17 16 15 15 12 11 12 11 8 7 8 9 9 10 12 13 15 16 15 13 12
8 10 16 18 19 20 19 19 18 15 12 9 9 8 7 7 8 9 8 7 6 7 9 8 6 7 8 10 12 13 14 15 14 13 13 13 13 13 14 14 15 17 17 16 15 14 13 12 12 10 8 9 10 10 12 13 13 14 16 17 15 14
7 8 13 17 19 19 20 20 19 17 12 9 8 7 6 5 7 7 7 7 6 7 9 7 5 5 7 9 10 10 12 14 14 15 15 13 13 12 12 13 13 15 16 17 16 15 14 12 12 11 9 8 8 10 12 13 14 14 16 18 17 17
5 8 11 15 18 19 20 20 19 18 13 9 9 8 7 6 7 7 7 8 8 9 8 6 7 7 7 7 8 9 11 12 13 14 15 15 14 12 12 12 13 13 14 16 15 15 14 13 13 13 11 9 8 9 9 10 12 13 15 18 19 19
2 6 10 13 16 17 20 20 19 19 16 12 12 11 10 10 9 8 8 9 9 11 10 7 6 7 7 7 7 10 13 13 14 14 15 15 16 14 12 12 13 14 14 14 14 15 15 14 12 12 12 11 9 8 8 9 9 10 13 16 19 19
0 5 8 12 15 16 19 20 19 20 18 14 15 13 13 13 10 11 12 11 10 11 11 7 6 7 8 7 7 11 14 14 13 14 15 16 17 15 12 12 14 15 15 15 14 15 16 14 12 12 14 15 13 10 10 9 8 8 10 13 17 19
2 2 6 10 13 14 17 19 19 21 18 14 15 15 15 13 9 10 11 12 12 11 12 9 7 8 8 6 7 12 14 13 12 13 14 16 17 15 12 11 13 15 15 15 14 15 15 15 14 13 14 16 17 16 15 14 11 8 7 8 12 16
3 3 4 9 11 13 17 18 18 20 19 15 16 16 15 13 11 11 11 11 11 10 12 11 9 9 7 5 7 12 14 12 12 13 14 14 13 12 12 12 14 15 15 14 14 15 15 14 14 14 13 14 16 16 17 18 16 12 9 8 10 12
4 3 4 8 10 12 15 16 16 20 19 15 17 17 14 14 14 13 12 11 10 10 10 11 10 9 7 6 8 13 14 12 11 12 12 12 10 10 12 14 15 15 16 14 13 15 15 14 14 14 14 14 16 16 17 18 18 18 16 14 14 14
4 3 5 7 9 10 13 14 16 18 18 15 17 18 15 15 14 13 13 10 9 9 8 10 12 10 9 8 10 13 14 13 12 11 12 12 10 10 12 13 14 15 15 14 13 14 15 15 15 15 16 16 16 16 17 17 18 19 19 19 18 17
5 5 6 7 8 9 10 13 15 15 16 15 17 19 17 15 14 13 12 10 11 12 9 9 10 8 8 10 12 14 15 14 13 12 12 12 10 10 12 12 13 14 14 14 13 14 15 15 15 14 15 17 17 17 18 18 17 16 17 20 20 20
7 6 6 6 7 9 9 11 13 14 15 15 16 18 17 15 15 13 12 10 12 13 10 9 9 7 6 9 11 14 16 16 15 13 13 13 10 9 11 12 12 13 13 13 13 14 14 14 14 14 15 17 17 17 18 18 17 16 15 17 19 20
8 8 7 5 6 8 8 9 12 14 15 14 15 19 17 15 15 14 12 10 11 12 10 9 10 8 6 6 8 10 13 16 16 15 15 14 12 10 11 11 11 12 13 13 13 14 14 14 15 14 15 16 15 16 18 19 19 17 16 17 17 18
9 9 8 6 5 7 7 7 11 14 15 13 15 19 19 17 16 15 11 9 10 11 11 11 10 10 8 7 8 8 9 12 14 15 16 16 14 13 13 12 11 11 12 13 14 14 15 15 16 15 15 16 15 15 16 17 18 18 19 19 20 18
10 9 8 7 6 7 6 6 11 14 14 13 13 16 18 17 17 16 11 8 10 11 11 11 10 10 9 8 8 9 9 11 12 14 16 17 16 15 15 14 12 11 12 13 15 15 16 15 16 17 17 16 15 16 15 14 17 19 20 22 24 21
10 10 9 8 7 7 6 7 11 13 13 12 12 14 17 18 16 15 13 10 10 11 11 11 11 10 10 8 9 10 11 12 12 13 15 16 17 17 17 16 15 13 12 13 15 16 17 17 17 17 17 17 16 16 16 15 16 19 21 22 25 24
11 10 9 9 9 8 8 8 10 11 12 11 11 13 16 18 15 14 13 11 12 13 12 12 11 10 9 8 10 11 13 13 12 13 14 15 16 18 19 18 16 14 13 13 15 15 17 17 17 17 17 17 17 15 16 16 16 17 20 21 23 24
Wind_Direction
67 59 52 51 39 21 349 314 299 303 302 317 331 340 10 30 25 33 47 14 332 325 337 338 290 226 241 255 253 249 249 240 227 251 277 285 281 255 229 220 210 203 200 192 184 183 186 190 188 185 184 177 170 159 145 144 153 182 203 232 258 205
84 78 66 60 46 25 23 17 358 332 297 298 305 315 345 14 7 4 41 353 303 300 326 323 309 252 254 272 264 259 260 258 248 248 259 270 282 289 263 232 221 207 201 194 190 191 193 196 196 196 190 181 174 159 145 141 149 183 199 230 264 198
87 89 83 69 48 27 35 42 14 353 332 314 299 304 332 351 343 338 343 325 291 296 315 293 292 276 272 282 264 258 267 273 271 259 253 258 268 283 277 243 226 212 204 198 197 198 198 201 201 200 198 188 172 154 143 140 142 173 206 250 257 195
78 74 74 69 55 42 43 52 12 338 337 326 313 314 319 319 344 357 339 341 330 305 285 275 280 281 287 290 260 249 265 278 279 273 261 255 258 261 262 244 228 216 208 203 203 203 201 205 204 197 199 189 175 161 148 144 143 175 221 243 227 194
67 61 61 59 56 46 36 49 11 326 341 326 319 326 316 318 348 359 330 338 332 300 271 271 271 269 277 283 278 259 257 266 269 272 266 260 257 249 246 238 227 219 214 209 205 209 213 214 209 196 192 175 169 163 154 145 141 184 223 224 202 192
57 51 46 44 47 38 25 30 19 357 18 330 314 338 327 322 339 340 299 293 287 272 255 259 263 265 267 266 286 283 265 264 263 265 266 265 257 245 244 237 224 218 219 221 225 239 234 213 206 199 189 176 170 165 163 146 143 197 229 226 205 195
49 43 38 37 37 27 16 19 19 9 0 347 329 349 325 320 326 318 294 277 266 256 244 239 250 266 273 273 296 297 281 269 261 261 263 263 256 246 244 239 225 219 223 229 239 247 237 212 199 198 190 177 170 166 169 148 151 215 237 235 222 199
42 39 35 34 33 23 13 12 13 2 348 350 312 297 300 319 324 313 304 286 270 259 253 245 240 255 269 280 299 296 283 270 262 261 260 259 258 249 246 244 230 219 222 225 232 234 227 216 197 194 192 184 176 169 172 148 156 226 241 239 227 201
34 35 34 33 31 22 17 11 5 359 353 347 325 317 340 10 316 297 297 290 280 269 268 266 249 246 259 272 286 283 276 266 262 263 260 257 257 252 249 246 231 219 221 222 228 222 213 211 197 193 194 194 186 174 177 148 151 227 247 241 224 201
29 30 30 29 27 20 18 11 7 5 354 350 347 349 16 18 329 292 283 277 284 279 275 274 263 252 254 258 264 268 265 259 261 266 265 260 254 250 251 248 237 233 231 220 218 218 212 206 200 196 192 200 198 184 185 153 146 223 250 239 214 199
27 27 25 23 23 19 16 10 14 12 347 349 10 11 353 350 303 274 272 270 277 285 284 279 273 262 256 256 255 258 257 255 259 263 262 262 253 246 255 255 244 241 243 228 212 214 211 202 202 200 192 199 205 195 189 157 145 213 246 240 211 201
29 28 22 16 16 16 17 14 14 14 346 348 26 23 341 323 293 265 273 299 282 278 288 285 280 272 263 261 259 259 259 257 257 256 258 263 255 247 258 262 255 247 244 239 220 212 209 199 206 210 196 196 203 205 189 157 144 205 240 242 215 206
32 29 20 13 10 10 15 19 16 9 347 345 33 33 340 328 326 312 346 335 302 278 282 284 281 276 270 265 263 263 264 262 260 258 260 263 256 249 258 264 265 261 250 241 224 215 214 202 214 223 215 208 210 216 189 159 147 199 239 246 224 214
33 27 17 12 8 6 11 16 16 8 358 6 33 18 331 332 343 331 333 354 326 291 280 284 280 274 272 269 265 264 263 262 262 262 262 262 256 252 260 264 264 264 264 259 232 222 225 209 212 230 230 224 217 214 193 169 156 182 233 244 230 222
30 24 17 14 11 8 9 11 14 8 5 21 20 342 314 311 315 305 297 340 316 290 273 282 287 280 276 276 273 266 263 260 258 259 257 258 259 257 263 269 269 267 272 276 259 246 244 228 218 226 227 223 216 213 197 182 170 169 226 246 234 223
27 23 19 17 16 12 9 9 11 8 5 18 38 12 340 329 347 341 330 291 288 285 271 273 299 298 287 283 279 271 268 263 260 260 256 255 259 260 264 268 270 271 274 275 271 265 257 239 217 212 215 213 213 219 208 189 177 166 213 251 245 224
29 24 20 17 16 14 10 9 11 10 8 15 57 44 344 325 358 341 314 287 286 285 273 263 281 300 296 290 286 279 275 268 263 263 259 256 259 263 267 266 265 270 275 274 272 272 267 257 234 218 212 212 215 223 221 204 184 173 188 239 253 233
34 28 24 18 16 17 12 13 18 9 8 19 49 46 340 322 346 316 298 292 293 290 279 272 270 280 285 285 286 283 283 279 270 266 265 262 261 265 267 268 266 265 270 272 271 270 266 261 252 243 224 219 223 226 224 215 201 191 182 203 245 248
40 34 29 23 19 20 15 16 23 9 10 26 33 29 358 345 347 323 306 292 290 289 288 291 280 274 277 278 279 279 280 284 278 274 274 269 266 268 267 266 266 263 263 267 269 270 267 265 258 252 244 219 220 228 228 218 211 206 194 189 216 244
44 37 33 29 21 21 18 18 20 14 18 21 17 20 16 3 331 301 292 285 286 285 287 303 298 284 281 279 277 279 278 280 283 283 280 273 270 273 273 269 266 266 262 260 264 267 263 264 263 251 241 220 216 234 241 226 216 210 204 196 194 215
44 37 33 30 23 22 21 20 17 21 27 12 4 9 1 350 319 299 296 290 291 300 300 304 308 303 298 295 290 286 281 277 280 285 285 280 278 278 279 276 270 267 263 259 261 263 260 259 262 254 238 235 230 233 242 238 231 221 212 207 195 196
47 37 34 29 26 25 21 20 16 20 24 5 5 4 352 349 327 315 318 314 309 314 303 289 308 327 321 318 309 299 291 283 278 280 286 286 286 286 282 281 278 270 265 262 263 263 261 258 256 251 235 237 238 236 242 244 243 235 221 213 206 200
51 41 34 27 26 25 21 22 19 18 15 2 4 344 322 326 315 309 311 309 299 301 299 286 297 314 318 317 305 305 305 293 281 275 277 280 284 290 289 288 286 278 270 265 266 266 263 255 247 241 230 224 226 235 244 244 245 245 233 222 217 213
47 37 33 26 25 23 20 22 19 17 16 5 356 336 318 306 298 304 298 288 282 287 295 297 302 296 300 308 296 304 309 296 286 277 276 278 278 284 291 291 288 284 278 270 269 270 265 253 238 231 227 218 208 217 234 242 248 251 242 232 227 225
34 27 30 23 23 21 17 20 18 16 19 8 355 348 338 327 320 329 320 301 297 300 298 296 315 310 299 304 300 305 305 295 290 281 276 277 274 272 277 287 291 289 282 274 270 270 266 259 245 233 228 220 207 206 216 225 240 248 240 234 232 230
36 3 18 18 19 19 15 16 15 15 19 8 356 349 336 333 339 342 332 321 323 328 326 319 324 320 301 301 309 304 300 299 300 291 280 275 269 266 268 277 288 290 287 281 274 269 267 266 259 249 239 232 229 224 218 220 230 242 240 234 233 232
176 309 359 12 13 15 14 13 11 13 19 8 353 344 333 335 342 337 332 330 332 340 344 335 322 320 306 298 308 300 295 298 306 304 295 282 268 265 269 271 277 285 289 284 278 275 270 264 259 255 248 241 239 237 234 233 233 236 242 240 238 236
193 248 342 8 9 9 10 11 8 12 20 8 348 342 337 341 342 332 329 330 333 343 348 338 327 327 316 310 312 300 295 300 305 309 309 295 270 262 269 267 268 277 285 283 280 281 274 264 261 259 253 245 244 245 243 239 235 235 244 254 258 253
214 241 319 358 8 5 6 10 4 7 18 9 348 345 343 341 339 333 331 333 334 341 343 338 339 335 321 322 315 297 293 302 310 315 320 311 280 266 273 273 273 278 286 288 283 280 277 271 267 262 258 252 245 244 245 241 235 237 246 253 259 261
217 218 280 331 0 2 3 6 0 1 12 8 349 346 343 337 336 333 331 334 336 339 337 337 344 342 331 329 314 301 299 304 312 319 326 325 306 286 282 281 284 285 287 291 287 280 280 279 274 266 261 258 251 245 243 241 236 239 247 251 253 255
219 215 255 304 346 358 358 358 359 359 3 5 352 345 344 339 338 337 335 340 342 339 335 335 338 338 340 336 318 310 309 307 311 317 319 322 322 312 298 288 289 293 292 295 294 286 282 281 280 274 265 260 257 249 243 241 241 243 249 251 251 252
227 229 249 291 330 348 350 349 355 355 356 2 351 341 342 340 337 334 330 333 333 329 329 332 328 324 335 336 327 319 312 311 315 319 317 315 316 315 309 299 294 295 297 300 299 291 287 284 282 280 272 264 260 253 246 245 246 245 252 255 251 252
230 236 251 276 310 335 341 340 346 348 353 0 348 338 337 334 330 325 319 318 320 322 323 322 322 320 319 324 327 321 315 317 319 317 314 313 311 304 303 304 300 298 300 303 303 297 292 289 285 283 277 270 267 260 253 254 252 243 245 251 247 247
227 233 246 258 285 318 329 330 336 340 349 358 349 342 340 336 332 327 320 315 316 319 317 316 319 319 316 320 322 314 311 316 316 313 309 307 308 305 301 302 302 302 302 301 301 298 295 293 290 287 282 276 272 268 262 260 255 240 235 241 243 244
223 227 236 244 269 302 310 314 325 331 344 354 348 343 339 335 333 330 321 311 311 314 313 313 315 312 314 326 328 323 323 326 325 322 316 312 310 307 304 303 304 304 303 302 299 296 296 296 293 289 284 278 271 269 268 260 252 245 238 238 241 242
222 226 235 245 262 280 282 300 320 327 336 348 350 346 336 327 327 325 317 313 310 309 307 304 305 309 317 327 331 336 337 334 331 328 326 323 317 311 306 304 303 301 301 304 302 298 295 293 290 286 282 277 269 266 268 261 253 251 246 239 238 238
222 225 231 241 256 267 274 297 316 319 329 347 350 341 330 323 323 317 312 316 312 306 303 300 302 309 321 330 332 336 333 328 325 325 327 326 320 313 308 303 299 300 303 306 304 299 294 287 283 281 277 275 271 265 264 260 252 249 246 240 238 239
Height
1550 1550 1551 1550 1550 1550 1549 1549 1548 1548 1548 1547 1546 1545 1545 1545 1545 1545 1546 1547 1547 1546 1545 1545 1545 1545 1546 1546 1546 1547 1546 1546 1547 1547 1547 1548 1548 1548 1548 1549 1549 1549 1549 1549 1549 1549 1549 1549 1550 1550 1550 1550 1551 1551 1551 1552 1552 1551 1552 1552 1552 1552
1549 1549 1550 1550 1550 1549 1549 1548 1548 1548 1547 1547 1546 1545 1545 1545 1545 1545 1547 1548 1547 1546 1546 1546 1546 1546 1546 1546 1546 1547 1546 1546 1547 1547 1548 1548 1548 1549 1549 1549 1549 1549 1549 1549 1549 1549 1549 1549 1550 1550 1550 1550 1551 1551 1551 1552 1552 1552 1552 1552 1553 1553
1549 1549 1549 1550 1550 1549 1549 1548 1548 1548 1547 1547 1546 1545 1545 1545 1545 1546 1547 1548 1548 1547 1546 1546 1546 1546 1546 1546 1546 1546 1546 1546 1547 1547 1548 1548 1548 1549 1549 1549 1549 1549 1549 1549 1549 1549 1549 1549 1549 1549 1550 1550 1550 1551 1551 1552 1553 1552 1552 1552 1553 1553
1550 1550 1549 1549 1549 1549 1548 1547 1547 1547 1547 1547 1546 1546 1545 1544 1546 1548 1548 1547 1547 1547 1546 1546 1546 1545 1545 1546 1546 1546 1546 1546 1546 1547 1547 1548 1548 1548 1549 1549 1549 1549 1549 1549 1549 1548 1549 1549 1549 1549 1549 1550 1550 1551 1551 1552 1553 1552 1552 1553 1553 1553
1550 1550 1550 1549 1549 1548 1548 1547 1547 1546 1546 1546 1546 1546 1545 1545 1546 1548 1548 1547 1546 1546 1546 1545 1545 1544 1544 1544 1545 1546 1546 1545 1545 1546 1547 1547 1548 1548 1548 1549 1549 1549 1549 1549 1548 1548 1549 1548 1548 1548 1549 1549 1549 1550 1551 1552 1552 1552 1552 1553 1553 1553
1550 1550 1549 1549 1548 1548 1548 1547 1547 1546 1545 1545 1545 1546 1545 1545 1546 1546 1547 1546 1546 1546 1546 1545 1544 1544 1543 1543 1544 1545 1545 1544 1545 1545 1546 1546 1547 1547 1547 1548 1548 1549 1549 1549 1548 1548 1548 1548 1548 1547 1547 1548 1548 1549 1550 1551 1551 1551 1552 1553 1553 1553
1549 1549 1548 1548 1547 1547 1547 1547 1546 1545 1545 1544 1544 1545 1545 1545 1545 1545 1546 1546 1545 1545 1544 1544 1543 1543 1543 1543 1544 1544 1544 1544 1544 1545 1545 1546 1546 1547 1547 1547 1547 1548 1548 1548 1548 1548 1548 1547 1547 1546 1546 1547 1547 1548 1549 1550 1550 1550 1551 1552 1553 1553
1549 1549 1548 1547 1547 1547 1546 1546 1545 1545 1544 1544 1543 1544 1544 1544 1544 1544 1545 1544 1544 1544 1543 1543 1542 1542 1542 1542 1543 1543 1544 1544 1544 1544 1545 1546 1546 1547 1547 1546 1547 1547 1547 1547 1547 1548 1548 1547 1546 1545 1546 1546 1546 1547 1548 1549 1550 1549 1550 1551 1552 1553
1549 1548 1548 1547 1547 1546 1546 1545 1544 1544 1543 1543 1543 1542 1543 1544 1544 1543 1543 1543 1543 1542 1542 1542 1541 1541 1540 1541 1542 1542 1543 1544 1544 1544 1545 1546 1547 1547 1547 1546 1546 1545 1545 1545 1545 1546 1547 1546 1545 1544 1545 1545 1546 1546 1547 1549 1550 1549 1549 1551 1551 1552
1548 1547 1547 1547 1546 1546 1545 1544 1543 1543 1542 1542 1542 1542 1542 1543 1543 1542 1542 1542 1542 1541 1541 1541 1540 1540 1540 1540 1541 1541 1542 1543 1543 1542 1543 1545 1547 1547 1546 1546 1545 1544 1544 1544 1543 1544 1546 1545 1544 1544 1544 1545 1545 1546 1547 1548 1550 1549 1549 1550 1551 1552
1547 1547 1546 1546 1546 1545 1544 1543 1542 1542 1541 1541 1541 1541 1542 1542 1542 1541 1541 1541 1541 1540 1540 1540 1540 1539 1539 1539 1540 1541 1541 1543 1543 1542 1542 1543 1544 1546 1546 1546 1544 1543 1543 1543 1543 1544 1545 1545 1543 1543 1544 1545 1545 1546 1547 1548 1549 1549 1549 1550 1551 1551
1547 1546 1546 1545 1544 1544 1543 1542 1542 1542 1541 1540 1540 1540 1541 1541 1540 1540 1540 1540 1540 1539 1539 1539 1539 1539 1538 1538 1540 1540 1540 1542 1542 1542 1542 1542 1543 1544 1545 1545 1544 1542 1541 1543 1544 1545 1544 1544 1544 1543 1543 1545 1546 1546 1547 1548 1549 1549 1549 1550 1551 1551
1546 1545 1545 1544 1543 1543 1542 1542 1541 1541 1540 1539 1539 1540 1540 1540 1539 1539 1540 1540 1539 1539 1538 1538 1538 1538 1538 1538 1539 1540 1539 1540 1541 1541 1542 1542 1543 1544 1544 1543 1542 1541 1542 1542 1542 1544 1544 1544 1544 1544 1544 1545 1546 1547 1548 1549 1550 1550 1549 1550 1551 1551
1545 1545 1544 1544 1543 1542 1541 1541 1540 1540 1539 1539 1539 1539 1539 1539 1539 1539 1539 1539 1539 1538 1537 1537 1537 1537 1537 1537 1538 1539 1539 1539 1540 1540 1541 1541 1542 1543 1543 1541 1540 1540 1541 1540 1540 1543 1546 1546 1545 1545 1545 1546 1547 1548 1549 1549 1550 1551 1550 1550 1551 1551
1544 1544 1544 1543 1542 1541 1541 1540 1539 1539 1538 1538 1538 1538 1538 1538 1538 1538 1538 1538 1538 1537 1536 1536 1536 1536 1536 1537 1537 1538 1538 1539 1539 1539 1540 1540 1540 1541 1541 1540 1540 1539 1538 1539 1540 1542 1544 1545 1545 1545 1546 1547 1548 1549 1550 1550 1551 1552 1551 1551 1551 1552
1544 1544 1543 1543 1542 1541 1541 1540 1539 1538 1538 1537 1537 1537 1537 1537 1537 1537 1537 1537 1536 1536 1536 1536 1535 1535 1536 1536 1536 1537 1537 1538 1538 1538 1539 1538 1538 1539 1539 1539 1539 1538 1538 1539 1540 1540 1542 1543 1544 1545 1546 1547 1548 1549 1550 1551 1551 1552 1552 1552 1552 1552
1544 1544 1543 1543 1542 1541 1541 1540 1539 1538 1538 1537 1537 1537 1538 1537 1537 1537 1536 1535 1535 1535 1534 1535 1535 1535 1535 1535 1535 1536 1536 1536 1537 1537 1538 1537 1537 1537 1538 1538 1538 1538 1539 1539 1540 1541 1542 1543 1544 1544 1546 1547 1548 1549 1550 1551 1552 1552 1553 1553 1552 1553
1544 1544 1544 1543 1542 1542 1541 1540 1539 1538 1538 1537 1537 1537 1537 1537 1536 1536 1535 1534 1534 1533 1533 1533 1534 1534 1534 1534 1534 1535 1535 1535 1535 1536 1536 1536 1536 1536 1537 1537 1537 1537 1538 1539 1540 1541 1542 1543 1544 1545 1546 1547 1547 1548 1549 1550 1551 1552 1553 1553 1553 1553
1544 1544 1544 1543 1542 1542 1540 1539 1539 1538 1537 1537 1537 1537 1537 1537 1537 1536 1534 1533 1533 1532 1532 1532 1532 1532 1533 1533 1533 1533 1534 1534 1534 1534 1534 1535 1535 1535 1536 1536 1536 1537 1537 1538 1539 1540 1541 1543 1545 1546 1546 1547 1546 1547 1548 1549 1550 1551 1552 1553 1554 1554
1544 1544 1544 1543 1542 1541 1540 1539 1538 1537 1537 1537 1537 1536 1537 1537 1536 1535 1533 1533 1532 1532 1532 1531 1531 1532 1532 1531 1532 1532 1533 1533 1533 1533 1534 1534 1535 1535 1535 1536 1536 1536 1536 1537 1537 1539 1541 1543 1544 1545 1547 1547 1547 1547 1547 1548 1549 1550 1552 1552 1553 1554
1544 1544 1544 1543 1542 1541 1539 1539 1538 1537 1537 1537 1537 1536 1536 1536 1535 1534 1533 1533 1532 1532 1532 1531 1531 1531 1531 1531 1531 1532 1532 1532 1533 1533 1533 1533 1534 1534 1534 1534 1535 1535 1535 1535 1536 1538 1540 1542 1543 1544 1546 1546 1546 1547 1547 1547 1548 1549 1551 1552 1553 1553
1544 1544 1543 1543 1542 1541 1539 1539 1538 1537 1537 1537 1536 1536 1535 1535 1535 1533 1533 1533 1532 1532 1532 1531 1531 1531 1531 1531 1531 1531 1531 1531 1531 1531 1531 1532 1533 1533 1533 1533 1534 1534 1534 1535 1536 1537 1538 1539 1541 1543 1544 1544 1544 1545 1545 1546 1547 1548 1550 1551 1552 1552
1544 1544 1543 1543 1541 1541 1540 1539 1538 1537 1537 1536 1536 1535 1535 1534 1533 1533 1532 1532 1531 1531 1531 1531 1531 1530 1530 1531 1531 1531 1530 1530 1530 1530 1530 1530 1531 1532 1532 1532 1532 1532 1533 1533 1534 1535 1536 1538 1539 1541 1542 1543 1543 1543 1543 1544 1545 1547 1549 1550 1550 1551
1544 1544 1543 1542 1541 1540 1540 1539 1538 1537 1536 1536 1535 1534 1534 1533 1532 1532 1531 1531 1530 1530 1530 1530 1530 1530 1530 1530 1530 1530 1530 1529 1529 1529 1529 1529 1530 1531 1531 1531 1531 1531 1531 1532 1533 1534 1534 1536 1537 1539 1540 1541 1542 1543 1542 1542 1544 1545 1547 1548 1548 1549
1544 1544 1543 1542 1541 1540 1540 1539 1538 1537 1536 1536 1535 1534 1533 1532 1531 1531 1531 1530 1530 1529 1529 1529 1529 1530 1530 1530 1530 1530 1529 1529 1528 1528 1528 1528 1528 1529 1530 1530 1530 1530 1530 1531 1531 1532 1532 1533 1534 1537 1538 1539 1541 1542 1542 1542 1543 1544 1544 1545 1545 1546
1544 1543 1543 1542 1541 1540 1539 1538 1537 1536 1535 1535 1534 1533 1532 1531 1531 1531 1530 1530 1530 1529 1529 1529 1529 1529 1530 1529 1530 1530 1529 1528 1528 1528 1527 1527 1527 1528 1529 1529 1529 1529 1529 1530 1530 1531 1531 1531 1532 1535 1536 1538 1539 1540 1540 1542 1543 1542 1542 1542 1542 1543
1544 1543 1542 1541 1540 1540 1539 1538 1537 1536 1535 1535 1534 1532 1531 1531 1530 1530 1530 1529 1529 1529 1528 1528 1528 1528 1528 1528 1529 1529 1528 1527 1527 1526 1526 1526 1526 1527 1527 1528 1528 1527 1528 1529 1529 1529 1530 1530 1531 1532 1534 1536 1537 1538 1539 1540 1541 1540 1540 1540 1540 1541
1544 1543 1542 1541 1540 1539 1538 1537 1537 1536 1536 1535 1534 1532 1531 1530 1530 1529 1529 1529 1528 1528 1528 1528 1528 1528 1527 1527 1528 1528 1527 1526 1526 1525 1525 1525 1525 1526 1526 1526 1526 1526 1527 1527 1528 1528 1528 1529 1529 1531 1533 1534 1535 1536 1537 1538 1538 1538 1538 1538 1538 1539
1544 1543 1541 1541 1540 1539 1538 1537 1537 1536 1536 1535 1534 1532 1531 1530 1530 1529 1528 1528 1528 1528 1528 1528 1528 1527 1527 1527 1527 1526 1526 1525 1525 1524 1524 1523 1524 1524 1525 1525 1525 1525 1525 1526 1526 1526 1527 1527 1528 1529 1530 1531 1532 1533 1534 1535 1536 1536 1536 1536 1536 1537
1543 1542 1541 1540 1540 1539 1538 1537 1536 1536 1536 1535 1534 1532 1531 1530 1529 1529 1528 1528 1527 1527 1527 1527 1527 1527 1526 1526 1526 1525 1525 1524 1524 1524 1523 1523 1523 1523 1524 1524 1524 1524 1524 1524 1524 1525 1525 1526 1526 1526 1527 1528 1530 1531 1532 1533 1534 1534 1534 1534 1535 1535
1542 1542 1541 1540 1539 1538 1538 1537 1536 1536 1535 1535 1533 1532 1531 1530 1529 1529 1528 1527 1527 1527 1527 1527 1526 1526 1526 1526 1525 1525 1524 1523 1523 1523 1523 1522 1522 1522 1522 1523 1522 1522 1522 1522 1523 1523 1523 1524 1524 1525 1525 1526 1527 1529 1530 1531 1532 1533 1534 1534 1534 1534
1541 1541 1540 1539 1538 1538 1537 1537 1536 1536 1535 1534 1534 1532 1531 1530 1529 1528 1528 1527 1527 1527 1527 1526 1526 1526 1525 1525 1525 1524 1523 1522 1522 1522 1522 1521 1521 1521 1521 1521 1521 1521 1521 1521 1521 1521 1521 1522 1522 1523 1523 1524 1525 1527 1527 1529 1530 1531 1533 1533 1533 1533
1541 1540 1540 1539 1538 1538 1537 1537 1536 1535 1535 1534 1533 1532 1531 1530 1529 1528 1528 1527 1527 1527 1526 1526 1525 1525 1525 1524 1524 1524 1523 1522 1522 1521 1521 1520 1520 1520 1519 1519 1520 1520 1520 1520 1520 1519 1519 1520 1520 1521 1521 1522 1523 1524 1525 1526 1528 1529 1530 1532 1532 1532
1540 1539 1539 1538 1538 1538 1537 1537 1536 1535 1535 1534 1533 1532 1531 1529 1529 1528 1528 1527 1526 1526 1525 1525 1525 1524 1524 1524 1523 1523 1522 1522 1521 1520 1520 1519 1519 1519 1518 1518 1518 1518 1518 1518 1518 1518 1518 1518 1518 1518 1519 1520 1521 1522 1523 1524 1525 1526 1527 1529 1530 1530
1539 1538 1538 1538 1537 1537 1537 1536 1536 1535 1534 1534 1533 1532 1531 1530 1529 1528 1527 1527 1526 1525 1525 1525 1524 1524 1523 1523 1523 1522 1522 1521 1521 1520 1519 1518 1518 1518 1517 1517 1517 1517 1517 1517 1517 1517 1517 1516 1516 1516 1517 1517 1518 1519 1520 1521 1522 1523 1523 1524 1526 1527
1537 1537 1537 1536 1536 1536 1536 1536 1535 1535 1534 1534 1533 1533 1531 1530 1529 1528 1527 1526 1526 1525 1524 1524 1523 1523 1523 1522 1522 1522 1521 1521 1520 1519 1519 1518 1517 1516 1516 1516 1516 1516 1516 1516 1515 1515 1515 1515 1515 1515 1515 1515 1516 1517 1518 1518 1519 1520 1520 1521 1522 1524
1536 1536 1536 1535 1535 1535 1535 1535 1534 1534 1534 1533 1533 1533 1531 1530 1529 1528 1527 1526 1525 1524 1524 1523 1522 1522 1522 1522 1522 1521 1521 1520 1519 1519 1518 1518 1517 1516 1515 1515 1515 1515 1515 1515 1514 1514 1513 1513 1513 1513 1513 1514 1514 1515 1515 1516 1517 1518 1518 1519 1520 1521